(341736) = 2007 VG250

Discovered at Mount Lemmon on 2007-11-14 by Mt. Lemmon Survey.

Orbit

Orbit type: Main Belt

Note: WebGL enabled browser required.

epoch2023-09-13.0
epoch JD2460200.5
perihelion date2018-05-22.71032
perihelion JD2458261.21032
argument of perihelion (°)284.76280
ascending node (°)80.53824
inclination (°)18.01550
eccentricity0.1334037
perihelion distance (AU)2.7098358
Tisserand w.r.t. Jupiter3.1
ΔV w.r.t. Earth (km/sec)11.7
semimajor axis (AU)3.1269876
mean anomaly (°)345.66650
mean daily motion (°/day)0.17824390
aphelion distance (AU)3.544
period (years)5.53
P-vector [x]0.94895933
P-vector [y]0.21087645
P-vector [z]-0.23453638
Q-vector [x]-0.08006564
Q-vector [y]0.88032548
Q-vector [z]0.46756447
absolute magnitude15.88
phase slope0.15
uncertainty0
referenceMPO 779442
observations used210
oppositions14
arc length (days)9801
first opposition used1997
last opposition used2023
residual rms (arc-secs)0.79
perturbers coarse indicatorM-v
perturbers precise indicator003Ek
first observation date used1997-01-09.0
last observation date used2023-11-10.0
computer nameMPCLINUX
JD of orbit computation2456639.687247
perihelion JD uncertainty (days)3.1936E-04
argument of perihelion uncertainty (°)7.6508E-05
ascending node uncertainty (°)4.2806E-05
inclination uncertainty (°)1.5077E-05
eccentricity uncertainty 1.3818E-07
perihelion distance uncertainty (AU)4.6849E-07
Minimum Orbit Intersection Distances (in AU)
for orbit epoch: 2460200.5, reference: E2023-VJ5
Mercury2.35515
Venus2.01348
Earth1.77781
Mars1.36689
Jupiter2.0753
Saturn5.95154
Uranus15.1151
Neptune27.0124

Observations

216 total observations over interval: 1997 01 09.16742 – 2023 11 10.254948
These data are available for download (format description).

Date (UT) J2000 RA J2000 Dec Magn Location Ref
1997 01 09.16742 03 41 15.77 +15 33 46.4 21.1 V 691 – Steward Observatory, Kitt Peak-Spacewatch MPS 444827
1997 01 09.18910 03 41 15.49 +15 33 53.8 21.0 V 691 – Steward Observatory, Kitt Peak-Spacewatch MPS 444827
2007 10 24.31964 03 59 18.06 +05 56 42.6 19.9 V G96 – Mt. Lemmon Survey MPS 229225
2007 10 24.32632 03 59 17.80 +05 56 42.6 19.9 V G96 – Mt. Lemmon Survey MPS 229225
2007 10 24.33299 03 59 17.55 +05 56 43.1 19.7 V G96 – Mt. Lemmon Survey MPS 229225
2007 10 24.33957 03 59 17.26 +05 56 42.8 20.1 V G96 – Mt. Lemmon Survey MPS 229225
2007 11 07.28001 03 48 17.49 +06 08 05.4 20.3 V 703 – Catalina Sky Survey MPS 229225
2007 11 07.28766 03 48 17.17 +06 08 04.4 20.2 V 703 – Catalina Sky Survey MPS 229225
2007 11 07.29528 03 48 16.81 +06 08 05.8 20.5 V 703 – Catalina Sky Survey MPS 229225
2007 11 07.30292 03 48 16.34 +06 08 07.5 19.8 V 703 – Catalina Sky Survey MPS 229225
2007 11 14.35042 03 41 46.32 +06 20 09.6 19.4 V G96 – Mt. Lemmon Survey MPS 228428
2007 11 14.35367 03 41 46.14 +06 20 09.9 19.5 V G96 – Mt. Lemmon Survey MPS 228428
2007 11 14.35690 03 41 45.96 +06 20 10.3 19.4 V G96 – Mt. Lemmon Survey MPS 228428
2007 11 14.36012 03 41 45.78 +06 20 10.7 19.5 V G96 – Mt. Lemmon Survey MPS 228428
2007 11 15.24319 03 40 55.88 +06 22 02.5 19.6 V G96 – Mt. Lemmon Survey MPS 228428
2007 11 15.24863 03 40 55.56 +06 22 03.4 19.6 V G96 – Mt. Lemmon Survey MPS 228428
2007 11 15.25410 03 40 55.23 +06 22 04.2 19.4 V G96 – Mt. Lemmon Survey MPS 228428
2007 11 15.25960 03 40 54.91 +06 22 04.8 19.6 V G96 – Mt. Lemmon Survey MPS 228428
2007 11 20.19635 03 36 13.89 +06 34 01.1 18.9 V 703 – Catalina Sky Survey MPS 229225
2007 11 20.20176 03 36 13.64 +06 34 02.6 20.1 V 703 – Catalina Sky Survey MPS 229225
2007 11 20.20714 03 36 13.35 +06 34 03.3 19.5 V 703 – Catalina Sky Survey MPS 229225
2007 11 20.21255 03 36 12.96 +06 34 04.4 19.4 V 703 – Catalina Sky Survey MPS 229225
2010 01 13.503073 13 44 40.27 +09 06 14.5   C51 – WISE MPS 329217
2010 01 13.635377 13 44 44.91 +09 06 23.5   C51 – WISE MPS 329217
2010 01 13.767682 13 44 49.567 +09 06 30.31   C51 – WISE MPS 879330
2010 01 13.899987 13 44 54.23 +09 06 38.7   C51 – WISE MPS 329217
2010 01 13.900115 13 44 54.20 +09 06 39.0   C51 – WISE MPS 329217
2010 01 13.966203 13 44 56.57 +09 06 44.3   C51 – WISE MPS 329217
2010 01 14.032419 13 44 58.85 +09 06 47.1   C51 – WISE MPS 329217
2010 01 14.098508 13 45 01.28 +09 06 53.7   C51 – WISE MPS 329217
2010 01 14.164723 13 45 03.44 +09 06 57.3   C51 – WISE MPS 329217
2010 01 14.230940 13 45 05.60 +09 07 03.0   C51 – WISE MPS 329217
2010 01 14.363244 13 45 10.20 +09 07 15.0   C51 – WISE MPS 329217
2010 01 14.627854 13 45 19.47 +09 07 31.1   C51 – WISE MPS 329217
2010 06 27.012094 13 02 04.38 +10 25 17.4   C51 – WISE MPS 335005
2010 06 27.144397 13 02 06.698 +10 24 14.15   C51 – WISE MPS 904117
2010 06 27.276701 13 02 08.89 +10 23 09.0   C51 – WISE MPS 335005
2010 06 27.408877 13 02 11.01 +10 22 04.1   C51 – WISE MPS 335005
2010 06 27.409005 13 02 11.045 +10 22 04.37   C51 – WISE MPS 904118
2010 06 27.475094 13 02 12.15 +10 21 33.4   C51 – WISE MPS 335005
2010 06 27.541182 13 02 13.35 +10 21 01.1   C51 – WISE MPS 335005
2010 06 27.607397 13 02 14.50 +10 20 28.0   C51 – WISE MPS 335005
2010 06 27.673485 13 02 15.612 +10 19 56.89   C51 – WISE MPS 904118
2010 06 27.739700 13 02 16.74 +10 19 24.1   C51 – WISE MPS 335005
2010 06 27.805789 13 02 17.73 +10 18 50.7   C51 – WISE MPS 335005
2010 06 27.872005 13 02 18.996 +10 18 22.21   C51 – WISE MPS 904118
2010 06 28.004308 13 02 21.30 +10 17 15.7   C51 – WISE MPS 335005
2010 06 28.136612 13 02 23.57 +10 16 11.8   C51 – WISE MPS 335005
2010 06 28.268788 13 02 25.88 +10 15 07.9   C51 – WISE MPS 335005
2010 06 28.268916 13 02 25.89 +10 15 07.1   C51 – WISE MPS 335005
2011 05 30.42088 17 26 53.801 -21 54 07.15 21.0 g F51 – Pan-STARRS 1, Haleakala MPS 386298
2011 05 30.45132 17 26 52.218 -21 54 14.17 20.6 r F51 – Pan-STARRS 1, Haleakala MPS 386298
2011 05 30.46564 17 26 51.480 -21 54 17.52 21.0 r F51 – Pan-STARRS 1, Haleakala MPS 386298
2012 08 16.67558 00 44 49.09 -23 50 24.0 19.8 V E12 – Siding Spring Survey MPS 430103
2012 08 16.68982 00 44 48.98 -23 50 31.8 20.0 V E12 – Siding Spring Survey MPS 430103
2012 08 16.70411 00 44 48.87 -23 50 38.2 19.6 V E12 – Siding Spring Survey MPS 430103
2012 08 16.71845 00 44 48.66 -23 50 45.5 20.3 V E12 – Siding Spring Survey MPS 430103
2012 09 26.448990 00 20 43.820 -28 04 57.65 19.8 r F51 – Pan-STARRS 1, Haleakala MPS 433361
2012 09 26.449588 00 20 43.772 -28 04 57.93 20.0 r F51 – Pan-STARRS 1, Haleakala MPS 433361
2012 09 26.460191 00 20 43.211 -28 04 59.16 19.7 r F51 – Pan-STARRS 1, Haleakala MPS 433361
2012 09 26.460789 00 20 43.192 -28 04 59.25 19.7 r F51 – Pan-STARRS 1, Haleakala MPS 433361
2013 11 24.61532 06 40 18.996 +26 17 39.90 20.5 i F51 – Pan-STARRS 1, Haleakala MPS 489881
2013 11 24.62926 06 40 18.529 +26 17 45.01 20.9 i F51 – Pan-STARRS 1, Haleakala MPS 489881
2015 01 15.51136 11 55 14.328 +24 00 14.18 21.3 r F51 – Pan-STARRS 1, Haleakala MPS 562391
2015 01 15.52424 11 55 14.360 +24 00 19.23 21.1 r F51 – Pan-STARRS 1, Haleakala MPS 562391
2015 01 15.53736 11 55 14.383 +24 00 24.10 21.4 r F51 – Pan-STARRS 1, Haleakala MPS 562391
2015 01 17.46622 11 55 16.886 +24 13 18.02 21.4 w F51 – Pan-STARRS 1, Haleakala MPS 567143
2015 01 17.48015 11 55 16.861 +24 13 23.93 21.8 w F51 – Pan-STARRS 1, Haleakala MPS 567143
2015 01 17.49403 11 55 16.856 +24 13 29.66 21.7 w F51 – Pan-STARRS 1, Haleakala MPS 567143
2015 01 17.50795 11 55 16.861 +24 13 35.42 21.6 w F51 – Pan-STARRS 1, Haleakala MPS 567143
2015 03 16.47209 11 24 29.156 +30 34 20.24 21.1 w F51 – Pan-STARRS 1, Haleakala MPS 592004
2015 03 16.48266 11 24 28.630 +30 34 22.27 21.1 w F51 – Pan-STARRS 1, Haleakala MPS 592004
2015 03 16.49325 11 24 28.113 +30 34 24.07 21.1 w F51 – Pan-STARRS 1, Haleakala MPS 592004
2015 03 16.50386 11 24 27.580 +30 34 26.04 21.1 w F51 – Pan-STARRS 1, Haleakala MPS 592004
2016 03 05.59603 15 28 55.144 -03 03 16.16 21.8 w F51 – Pan-STARRS 1, Haleakala MPS 692353
2016 03 05.60737 15 28 55.238 -03 03 14.58 21.8 w F51 – Pan-STARRS 1, Haleakala MPS 692353
2016 03 05.61871 15 28 55.291 -03 03 13.83 21.8 w F51 – Pan-STARRS 1, Haleakala MPS 692353
2016 03 05.63005 15 28 55.366 -03 03 12.63 21.5 w F51 – Pan-STARRS 1, Haleakala MPS 692353
2016 04 29.36929 15 07 13.22 -01 09 42.6 20.7 V G96 – Mt. Lemmon Survey MPS 705941
2016 04 29.37333 15 07 13.02 -01 09 42.9 20.3 V G96 – Mt. Lemmon Survey MPS 705941
2016 04 29.37737 15 07 12.81 -01 09 43.2 20.6 V G96 – Mt. Lemmon Survey MPS 705941
2016 05 05.45663 15 02 15.947 -01 04 27.92 20.7 w F51 – Pan-STARRS 1, Haleakala MPS 708098
2016 05 05.46863 15 02 15.339 -01 04 27.42 20.7 w F51 – Pan-STARRS 1, Haleakala MPS 708098
2016 05 05.48062 15 02 14.732 -01 04 27.05 20.6 w F51 – Pan-STARRS 1, Haleakala MPS 708098
2016 05 05.49262 15 02 14.120 -01 04 26.64 20.6 w F51 – Pan-STARRS 1, Haleakala MPS 708098
2016 06 05.25954 14 39 19.76 -01 42 47.4 21.2 V G96 – Mt. Lemmon Survey MPS 716476
2016 06 05.26482 14 39 19.59 -01 42 48.3 21.0 V G96 – Mt. Lemmon Survey MPS 716476
2016 06 05.27007 14 39 19.40 -01 42 49.0 21.5 V G96 – Mt. Lemmon Survey MPS 716476
2016 06 05.27536 14 39 19.22 -01 42 50.6 22.0 V G96 – Mt. Lemmon Survey MPS 716476
2017 07 30.38640 19 55 17.780 -38 04 54.90 20.3 i F51 – Pan-STARRS 1, Haleakala MPS 809160
2017 07 30.39609 19 55 17.235 -38 04 58.53 20.4 i F51 – Pan-STARRS 1, Haleakala MPS 809160
2017 07 30.40579 19 55 16.682 -38 05 01.12 20.4 i F51 – Pan-STARRS 1, Haleakala MPS 809160
2017 07 30.41547 19 55 16.096 -38 05 04.10 20.0 i F51 – Pan-STARRS 1, Haleakala MPS 809160
2018 10 18.43739 03 30 47.14 +01 08 00.0 20.0 G G96 – Mt. Lemmon Survey MPS 930853
2018 10 18.44249 03 30 46.92 +01 07 59.7 20.1 G G96 – Mt. Lemmon Survey MPS 930853
2018 10 18.44759 03 30 46.71 +01 07 59.7 20.1 G G96 – Mt. Lemmon Survey MPS 930853
2018 10 18.45269 03 30 46.49 +01 07 59.2 19.7 G G96 – Mt. Lemmon Survey MPS 930853
2018 11 02.38181 03 18 47.90 +01 07 09.2 19.9 G G96 – Mt. Lemmon Survey MPS 936536
2018 11 02.38692 03 18 47.62 +01 07 09.4 19.7 G G96 – Mt. Lemmon Survey MPS 936536
2018 11 02.39204 03 18 47.34 +01 07 09.8 19.8 G G96 – Mt. Lemmon Survey MPS 936536
